• In Netherlands
  • List of Countries
  • For 7 days
  • Water Temperature
  • Satellite Maps
  • Weather Map
  • Weather Widgets
  • user-avatar
    Login

    Hourly Weather Jalalabad

    Today, 19 January, Friday

    Time Temperature Precipitation Wind Pressure Humidity
    00:00 +10°C° 0 mm 2 mps 712 mmHg 22%
    01:00 +10°C° 0 mm 2 mps 712 mmHg 22%
    02:00 +10°C° 0 mm 3 mps 712 mmHg 22%
    03:00 +10°C° 0 mm 3 mps 712 mmHg 21%
    04:00 +9°C° 0 mm 3 mps 711 mmHg 21%
    05:00 +9°C° 0 mm 2 mps 711 mmHg 22%
    06:00 +9°C° 0 mm 2 mps 711 mmHg 22%
    07:00 +9°C° 0 mm 2 mps 711 mmHg 21%
    08:00 +9°C° 0 mm 3 mps 712 mmHg 21%
    09:00 +12°C° 0 mm 2 mps 712 mmHg 19%
    10:00 +14°C° 0 mm 2 mps 712 mmHg 16%
    11:00 +17°C° 0 mm 2 mps 712 mmHg 14%
    12:00 +17°C° 0 mm 2 mps 712 mmHg 14%
    13:00 +18°C° 0 mm 2 mps 712 mmHg 13%
    14:00 +18°C° 0 mm 2 mps 712 mmHg 13%
    15:00 +18°C° 0 mm 2 mps 712 mmHg 14%
    16:00 +17°C° 0 mm 2 mps 712 mmHg 15%
    17:00 +16°C° 0 mm 1 mps 712 mmHg 17%
    18:00 +15°C° 0 mm 2 mps 712 mmHg 18%
    19:00 +14°C° 0 mm 2 mps 713 mmHg 18%
    20:00 +13°C° 0 mm 2 mps 713 mmHg 19%
    21:00 +12°C° 0 mm 2 mps 713 mmHg 19%
    22:00 +12°C° 0 mm 2 mps 713 mmHg 20%
    23:00 +12°C° 0 mm 2 mps 713 mmHg 20%

    Tomorrow, 20 January, Saturday

    Time Temperature Precipitation Wind Pressure Humidity
    00:00 +12°C° 0 mm 2 mps 713 mmHg 19%
    01:00 +10°C° 0 mm 2 mps 712 mmHg 19%
    02:00 +10°C° 0 mm 2 mps 712 mmHg 19%
    03:00 +10°C° 0 mm 2 mps 711 mmHg 18%
    04:00 +10°C° 0 mm 2 mps 711 mmHg 18%
    05:00 +9°C° 0 mm 2 mps 710 mmHg 18%
    06:00 +10°C° 0 mm 2 mps 710 mmHg 17%
    07:00 +10°C° 0 mm 2 mps 710 mmHg 17%
    08:00 +10°C° 0 mm 2 mps 710 mmHg 17%
    09:00 +14°C° 0 mm 2 mps 710 mmHg 15%
    10:00 +16°C° 0 mm 1 mps 711 mmHg 13%
    11:00 +20°C° 0 mm 1 mps 711 mmHg 10%
    12:00 +21°C° 0 mm 1 mps 710 mmHg 10%
    13:00 +22°C° 0 mm 1 mps 709 mmHg 10%
    14:00 +22°C° 0 mm 1 mps 709 mmHg 9%
    15:00 +21°C° 0 mm 1 mps 709 mmHg 11%
    16:00 +20°C° 0 mm 1 mps 708 mmHg 14%
    17:00 +17°C° 0 mm 0 mps 708 mmHg 16%
    18:00 +18°C° 0 mm 1 mps 708 mmHg 16%
    19:00 +15°C° 0 mm 1 mps 708 mmHg 15%
    20:00 +14°C° 0 mm 1 mps 709 mmHg 15%
    21:00 +14°C° 0 mm 1 mps 709 mmHg 15%
    22:00 +14°C° 0 mm 2 mps 708 mmHg 15%
    23:00 +14°C° 0 mm 2 mps 708 mmHg 15%

    Day after tomorrow, 21 January, Sunday

    Time Temperature Precipitation Wind Pressure Humidity
    00:00 +14°C° 0 mm 2 mps 708 mmHg 14%
    01:00 +13°C° 0 mm 2 mps 708 mmHg 14%
    02:00 +13°C° 0 mm 2 mps 708 mmHg 14%
    03:00 +13°C° 0 mm 2 mps 708 mmHg 13%
    04:00 +12°C° 0 mm 2 mps 708 mmHg 13%
    05:00 +12°C° 0 mm 2 mps 707 mmHg 12%
    06:00 +12°C° 0 mm 2 mps 708 mmHg 12%
    07:00 +12°C° 0 mm 2 mps 708 mmHg 12%
    08:00 +12°C° 0 mm 2 mps 708 mmHg 11%
    09:00 +15°C° 0 mm 2 mps 709 mmHg 10%
    10:00 +18°C° 0 mm 2 mps 709 mmHg 8%
    11:00 +20°C° 0 mm 2 mps 709 mmHg 7%
    12:00 +22°C° 0 mm 1 mps 709 mmHg 7%
    13:00 +22°C° 0 mm 1 mps 708 mmHg 7%
    14:00 +23°C° 0 mm 1 mps 708 mmHg 7%
    15:00 +22°C° 0 mm 1 mps 708 mmHg 10%
    16:00 +21°C° 0 mm 1 mps 708 mmHg 12%
    17:00 +20°C° 0 mm 1 mps 708 mmHg 14%
    18:00 +18°C° 0 mm 1 mps 708 mmHg 14%
    19:00 +16°C° 0 mm 1 mps 708 mmHg 13%
    20:00 +15°C° 0 mm 2 mps 709 mmHg 13%
    21:00 +14°C° 0 mm 2 mps 709 mmHg 13%
    22:00 +14°C° 0 mm 2 mps 709 mmHg 13%
    23:00 +13°C° 0 mm 2 mps 709 mmHg 13%

    22 January, Monday

    Time Temperature Precipitation Wind Pressure Humidity
    00:00 +13°C° 0 mm 2 mps 709 mmHg 13%
    01:00 +13°C° 0 mm 2 mps 708 mmHg 14%
    02:00 +12°C° 0 mm 2 mps 708 mmHg 14%
    03:00 +12°C° 0 mm 2 mps 708 mmHg 13%
    04:00 +12°C° 0 mm 2 mps 708 mmHg 13%
    05:00 +10°C° 0 mm 2 mps 707 mmHg 13%
    06:00 +10°C° 0 mm 2 mps 708 mmHg 13%
    07:00 +10°C° 0 mm 2 mps 708 mmHg 13%
    08:00 +10°C° 0 mm 2 mps 708 mmHg 13%
    09:00 +14°C° 0 mm 2 mps 708 mmHg 11%
    10:00 +16°C° 0 mm 2 mps 708 mmHg 10%
    11:00 +18°C° 0 mm 2 mps 708 mmHg 8%
    12:00 +19°C° 0 mm 2 mps 707 mmHg 8%
    13:00 +20°C° 0 mm 1 mps 707 mmHg 9%
    14:00 +21°C° 0 mm 1 mps 706 mmHg 9%
    15:00 +20°C° 0 mm 1 mps 706 mmHg 11%
    16:00 +19°C° 0 mm 1 mps 706 mmHg 12%
    17:00 +18°C° 0 mm 1 mps 706 mmHg 14%
    18:00 +16°C° 0 mm 1 mps 706 mmHg 14%
    19:00 +15°C° 0 mm 2 mps 707 mmHg 15%
    20:00 +13°C° 0 mm 2 mps 707 mmHg 15%
    21:00 +13°C° 0 mm 2 mps 707 mmHg 15%
    22:00 +12°C° 0 mm 2 mps 707 mmHg 15%
    23:00 +12°C° 0 mm 2 mps 708 mmHg 15%

    23 January, Tuesday

    Time Temperature Precipitation Wind Pressure Humidity
    00:00 +12°C° 0 mm 2 mps 707 mmHg 15%
    01:00 +10°C° 0 mm 2 mps 707 mmHg 15%
    02:00 +10°C° 0 mm 2 mps 707 mmHg 14%
    03:00 +10°C° 0 mm 2 mps 707 mmHg 14%
    04:00 +9°C° 0 mm 2 mps 707 mmHg 14%
    05:00 +9°C° 0 mm 2 mps 707 mmHg 13%
    06:00 +9°C° 0 mm 2 mps 707 mmHg 13%
    07:00 +9°C° 0 mm 2 mps 708 mmHg 13%
    08:00 +9°C° 0 mm 2 mps 708 mmHg 13%
    09:00 +12°C° 0 mm 2 mps 708 mmHg 12%
    10:00 +14°C° 0 mm 2 mps 708 mmHg 11%
    11:00 +16°C° 0 mm 2 mps 708 mmHg 10%
    12:00 +17°C° 0 mm 2 mps 708 mmHg 10%
    13:00 +17°C° 0 mm 2 mps 707 mmHg 10%
    14:00 +18°C° 0 mm 2 mps 706 mmHg 10%
    15:00 +18°C° 0 mm 1 mps 706 mmHg 12%
    16:00 +18°C° 0 mm 1 mps 706 mmHg 13%
    17:00 +16°C° 0 mm 1 mps 706 mmHg 15%
    18:00 +15°C° 0 mm 1 mps 707 mmHg 16%
    19:00 +13°C° 0 mm 1 mps 707 mmHg 17%
    20:00 +12°C° 0 mm 1 mps 708 mmHg 18%
    21:00 +12°C° 0 mm 1 mps 708 mmHg 18%
    22:00 +11°C° 0 mm 1 mps 708 mmHg 18%
    23:00 +11°C° 0 mm 1 mps 708 mmHg 18%

    24 January, Wednesday

    Time Temperature Precipitation Wind Pressure Humidity
    00:00 +11°C° 0 mm 1 mps 707 mmHg 18%
    01:00 +10°C° 0 mm 1 mps 707 mmHg 19%
    02:00 +10°C° 0 mm 1 mps 707 mmHg 19%
    03:00 +10°C° 0 mm 1 mps 707 mmHg 19%
    04:00 +10°C° 0 mm 1 mps 706 mmHg 19%
    05:00 +9°C° 0 mm 1 mps 706 mmHg 19%
    06:00 +9°C° 0 mm 1 mps 706 mmHg 19%
    07:00 +10°C° 0 mm 1 mps 707 mmHg 20%
    08:00 +10°C° 0 mm 1 mps 707 mmHg 20%
    09:00 +12°C° 0 mm 1 mps 707 mmHg 17%
    10:00 +14°C° 0 mm 1 mps 707 mmHg 14%
    11:00 +18°C° 0 mm 1 mps 707 mmHg 12%
    12:00 +18°C° 0 mm 1 mps 707 mmHg 12%
    13:00 +19°C° 0 mm 1 mps 706 mmHg 12%
    14:00 +18°C° 0 mm 2 mps 706 mmHg 11%
    15:00 +18°C° 0 mm 1 mps 706 mmHg 13%
    16:00 +18°C° 0 mm 1 mps 706 mmHg 14%
    17:00 +16°C° 0 mm 1 mps 706 mmHg 16%
    18:00 +15°C° 0 mm 1 mps 706 mmHg 17%
    19:00 +13°C° 0 mm 1 mps 707 mmHg 19%
    20:00 +12°C° 0 mm 1 mps 707 mmHg 20%
    21:00 +12°C° 0 mm 1 mps 707 mmHg 20%
    22:00 +11°C° 0 mm 1 mps 707 mmHg 20%
    23:00 +11°C° 0 mm 1 mps 707 mmHg 20%
    Show more